Terminal Aerodrome Forecast
Issued by NWS Jackson, MS

Home | Current Version | Previous Version | Text Only | Print | Product List | Glossary On
Versions: 1 2 3 4 5 6 7 8 9 10 11 12 13 14 15 16 17 18 19 20 21 22 23 24
000
FTUS44 KJAN 041601 AAC
TAFMEI
TAF AMD
KMEI 041601Z 0416/0512 20006KT P6SM BKN040
     FM041800 21006KT 6SM -SHRA VCTS SCT030 BKN050CB
     FM042000 22008KT 5SM -TSRA SCT030 OVC050CB
     FM050000 19005KT 6SM -SHRA VCTS SCT020 BKN040CB=

USA.gov is the U.S. government's official web portal to all federal, state and local government web resources and services.